Weather History for Montevideo, MN

Change the Weather History Date:

Wednesday, January 9, 2013

  Actual Average Record
Temperature  
Mean Temperature 30 °F -  
Max Temperature 35 °F 15 °F 53 °F (2012)
Min Temperature 26 °F -1 °F -35 °F (1977)
Degree Days  
Heating Degree Days 34    
Moisture  
Dew Point 24 °F    
Average Humidity 76    
Maximum Humidity 86    
Minimum Humidity 64    
Precipitation  
Precipitation 0.00 in - - ()
Sea Level Pressure  
Sea Level Pressure 30.17 in    
Wind  
Wind Speed 11 mph (West)    
Max Wind Speed 22 mph    
Max Gust Speed 31 mph    
Visibility 10 miles    
Events      
Averages and records for this station are not official NWS values.
T = Trace of Precipitation, MM = Missing Value Source: NWS Daily Summary

Daily Weather History Graph

Daily Weather History Graph

Search for Another Location

Airport:

Trip Planner

Search our weather history database for the weather conditions in past years. The results will help you decide how hot, cold, wet, or windy it might be!

Date:

Astronomy

Jan. 09, 2013 Rise Set
Actual Time 7:59 AM CST 5:00 PM CST
Civil Twilight 7:26 AM CST 5:33 PM CST
Nautical Twilight 6:50 AM CST 6:10 PM CST
Astronomical Twilight 6:14 AM CST 6:45 PM CST
Moon 5:40 AM CST (1/9) 3:03 PM CST (1/9)
Length of Visible Light 10h 07m
Length of Day
9h 00m
Waning Crescent, 6% of the Moon is Illuminated
Jan 9
Waning Crescent
Jan 11
New
Jan 18
First Quarter
Jan 26
Full
Feb 3
Last Quarter

Hourly Weather History & Observations

Time (CST) Temp. Windchill Dew Point Humidity Pressure Visibility Wind Dir Wind Speed Gust Speed Precip Events Conditions
12:14 AM 35.6 °F 29.2 °F 28.4 °F 75% 29.94 in 10.0 mi WNW 8.1 mph - N/A   Mostly Cloudy
12:34 AM 35.6 °F 29.2 °F 28.4 °F 75% 29.94 in 10.0 mi WNW 8.1 mph - N/A   Scattered Clouds
12:55 AM 35.6 °F 28.6 °F 28.4 °F 75% 29.94 in 10.0 mi West 9.2 mph - N/A   Clear
1:14 AM 33.8 °F 25.8 °F 28.4 °F 81% 29.95 in 10.0 mi West 10.4 mph 18.4 mph N/A   Clear
1:34 AM 33.8 °F 24.3 °F 28.4 °F 81% 29.95 in 10.0 mi West 13.8 mph 19.6 mph N/A   Clear
1:55 AM 33.8 °F 24.8 °F 28.4 °F 81% 29.97 in 10.0 mi WNW 12.7 mph - N/A   Clear
2:14 AM 33.8 °F 24.3 °F 28.4 °F 81% 29.99 in 10.0 mi WNW 13.8 mph 21.9 mph N/A   Clear
2:34 AM 33.8 °F 24.3 °F 28.4 °F 81% 29.99 in 10.0 mi WNW 13.8 mph 23.0 mph N/A   Clear
2:54 AM 33.8 °F 23.2 °F 28.4 °F 81% 30.00 in 10.0 mi WNW 17.3 mph 21.9 mph N/A   Clear
3:14 AM 33.8 °F 22.5 °F 26.6 °F 75% 30.01 in 10.0 mi WNW 19.6 mph 27.6 mph N/A   Clear
3:34 AM 33.8 °F 21.9 °F 26.6 °F 75% 30.02 in 10.0 mi WNW 21.9 mph 27.6 mph N/A   Clear
3:54 AM 33.8 °F 23.2 °F 26.6 °F 75% 30.03 in 10.0 mi NW 17.3 mph 27.6 mph N/A   Clear
4:14 AM 33.8 °F 23.2 °F 26.6 °F 75% 30.05 in 10.0 mi NW 17.3 mph 25.3 mph N/A   Clear
4:34 AM 32.0 °F 20.8 °F 24.8 °F 75% 30.06 in 10.0 mi NW 17.3 mph 26.5 mph N/A   Clear
4:54 AM 32.0 °F 20.1 °F 24.8 °F 75% 30.06 in 10.0 mi NW 19.6 mph 29.9 mph N/A   Clear
5:14 AM 32.0 °F 19.8 °F 24.8 °F 75% 30.08 in 10.0 mi NW 20.7 mph 31.1 mph N/A   Clear
5:34 AM 32.0 °F 20.8 °F 24.8 °F 75% 30.09 in 10.0 mi NW 17.3 mph 24.2 mph N/A   Clear
6:14 AM 30.2 °F 18.9 °F 23.0 °F 75% 30.10 in 10.0 mi NW 16.1 mph 26.5 mph N/A   Clear
6:34 AM 30.2 °F 18.9 °F 23.0 °F 75% 30.12 in 10.0 mi NW 16.1 mph 20.7 mph N/A   Clear
7:14 AM 28.4 °F 16.6 °F 21.2 °F 74% 30.13 in 10.0 mi NW 16.1 mph 23.0 mph N/A   Clear
7:34 AM 28.4 °F 17.5 °F 21.2 °F 74% 30.14 in 10.0 mi NNW 13.8 mph 19.6 mph N/A   Clear
7:54 AM 28.4 °F 18.0 °F 21.2 °F 74% 30.15 in 10.0 mi NNW 12.7 mph 21.9 mph N/A   Clear
8:14 AM 28.4 °F 19.7 °F 21.2 °F 74% 30.16 in 10.0 mi NNW 9.2 mph 16.1 mph N/A   Clear
8:34 AM 28.4 °F 19.7 °F 21.2 °F 74% 30.17 in 10.0 mi NNW 9.2 mph 16.1 mph N/A   Clear
8:54 AM 28.4 °F 20.4 °F 21.2 °F 74% 30.18 in 10.0 mi North 8.1 mph - N/A   Clear
9:14 AM 28.4 °F 23.3 °F 21.2 °F 74% 30.19 in 10.0 mi NNW 4.6 mph - N/A   Clear
9:34 AM 28.4 °F 21.2 °F 21.2 °F 74% 30.20 in 10.0 mi NW 6.9 mph - N/A   Clear
9:54 AM 28.4 °F 21.2 °F 21.2 °F 74% 30.20 in 10.0 mi NNW 6.9 mph - N/A   Clear
10:14 AM 28.4 °F 21.2 °F 21.2 °F 74% 30.21 in 10.0 mi NW 6.9 mph - N/A   Clear
10:34 AM 28.4 °F 21.2 °F 21.2 °F 74% 30.22 in 10.0 mi NW 6.9 mph - N/A   Clear
10:54 AM 30.2 °F 22.6 °F 21.2 °F 69% 30.24 in 10.0 mi WNW 8.1 mph - N/A   Clear
11:14 AM 30.2 °F 23.4 °F 21.2 °F 69% 30.27 in 10.0 mi WNW 6.9 mph - N/A   Clear
11:54 AM 30.2 °F 23.4 °F 21.2 °F 69% 30.29 in 10.0 mi NW 6.9 mph - N/A   Clear
12:14 PM 32.0 °F 23.6 °F 21.2 °F 64% 30.29 in 10.0 mi NW 10.4 mph - N/A   Clear
12:34 PM 30.2 °F 21.9 °F 21.2 °F 69% 30.30 in 10.0 mi WNW 9.2 mph - N/A   Clear
12:54 PM 32.0 °F 23.6 °F 21.2 °F 64% 30.30 in 10.0 mi WNW 10.4 mph - N/A   Clear
1:14 PM 32.0 °F 25.6 °F 21.2 °F 64% 30.29 in 10.0 mi NNW 6.9 mph - N/A   Clear
1:34 PM 32.0 °F 27.5 °F 21.2 °F 64% 30.29 in 10.0 mi NW 4.6 mph - N/A   Clear
1:54 PM 32.0 °F 27.5 °F 21.2 °F 64% 30.29 in 10.0 mi WSW 4.6 mph - N/A   Clear
2:15 PM 30.2 °F 23.4 °F 21.2 °F 69% 30.31 in 10.0 mi WSW 6.9 mph - N/A   Clear
2:34 PM 32.0 °F 27.5 °F 21.2 °F 64% 30.32 in 10.0 mi SSW 4.6 mph - N/A   Clear
2:54 PM 30.2 °F 25.4 °F 23.0 °F 75% 30.31 in 10.0 mi South 4.6 mph - N/A   Clear
3:15 PM 30.2 °F 24.3 °F 23.0 °F 75% 30.30 in 10.0 mi South 5.8 mph - N/A   Clear
3:34 PM 32.0 °F 27.5 °F 21.2 °F 64% 30.31 in 10.0 mi South 4.6 mph - N/A   Clear
3:54 PM 30.2 °F 22.6 °F 23.0 °F 75% 30.30 in 10.0 mi South 8.1 mph - N/A   Clear
4:14 PM 30.2 °F 21.9 °F 23.0 °F 75% 30.28 in 10.0 mi South 9.2 mph - N/A   Clear
4:34 PM 28.4 °F 19.7 °F 21.2 °F 74% 30.28 in 10.0 mi South 9.2 mph - N/A   Clear
4:54 PM 26.6 °F 20.0 °F 21.2 °F 80% 30.27 in 10.0 mi SSE 5.8 mph - N/A   Clear
5:14 PM 26.6 °F 19.1 °F 21.2 °F 80% 30.26 in 10.0 mi South 6.9 mph - N/A   Clear
5:34 PM 26.6 °F 18.2 °F 21.2 °F 80% 30.27 in 10.0 mi South 8.1 mph - N/A   Clear
5:54 PM 26.6 °F 18.2 °F 23.0 °F 86% 30.25 in 10.0 mi South 8.1 mph - N/A   Clear
6:14 PM 26.6 °F 17.5 °F 23.0 °F 86% 30.25 in 10.0 mi South 9.2 mph - N/A   Clear
6:34 PM 28.4 °F 20.4 °F 24.8 °F 86% 30.24 in 10.0 mi South 8.1 mph - N/A   Clear
7:14 PM 28.4 °F 20.4 °F 24.8 °F 86% 30.24 in 10.0 mi South 8.1 mph - N/A   Clear
7:34 PM 28.4 °F 19.1 °F 24.8 °F 86% 30.24 in 10.0 mi South 10.4 mph - N/A   Clear
7:54 PM 30.2 °F 20.8 °F 24.8 °F 80% 30.23 in 10.0 mi South 11.5 mph - N/A   Clear
8:14 PM 30.2 °F 20.2 °F 24.8 °F 80% 30.22 in 10.0 mi SSW 12.7 mph - N/A   Clear
8:34 PM 30.2 °F 20.8 °F 24.8 °F 80% 30.22 in 10.0 mi South 11.5 mph 18.4 mph N/A   Clear
8:54 PM 30.2 °F 20.2 °F 24.8 °F 80% 30.21 in 10.0 mi South 12.7 mph - N/A   Clear
9:14 PM 30.2 °F 19.8 °F 26.6 °F 86% 30.19 in 10.0 mi South 13.8 mph 18.4 mph N/A   Clear
9:34 PM 30.2 °F 20.2 °F 26.6 °F 86% 30.18 in 10.0 mi SSW 12.7 mph 20.7 mph N/A   Clear
9:54 PM 32.0 °F 22.1 °F 26.6 °F 80% 30.17 in 10.0 mi SSW 13.8 mph - N/A   Clear
10:14 PM 30.2 °F 19.8 °F 26.6 °F 86% 30.16 in 10.0 mi SSW 13.8 mph 19.6 mph N/A   Clear
10:34 PM 30.2 °F 19.3 °F 26.6 °F 86% 30.16 in 10.0 mi SSW 15.0 mph 18.4 mph N/A   Clear
10:54 PM 30.2 °F 19.8 °F 26.6 °F 86% 30.17 in 10.0 mi SSW 13.8 mph 21.9 mph N/A   Clear
11:14 PM 30.2 °F 19.8 °F 26.6 °F 86% 30.16 in 10.0 mi SW 13.8 mph 19.6 mph N/A   Clear
11:34 PM 30.2 °F 20.8 °F 26.6 °F 86% 30.16 in 10.0 mi SW 11.5 mph 18.4 mph N/A   Clear
11:54 PM 30.2 °F 20.2 °F 26.6 °F 86% 30.16 in 10.0 mi SW 12.7 mph - N/A   Clear